Weather History for Baton Rouge, LA

Change the Weather History Date:

Monday, December 9, 2013

  Actual Average Record
Temperature  
Mean Temperature 46 °F 54 °F  
Max Temperature 52 °F 65 °F 83 °F (1971)
Min Temperature 40 °F 44 °F 21 °F (1917)
Degree Days  
Heating Degree Days 19 11  
Month to date heating degree days 91 96  
Since 1 July heating degree days 378 331  
Cooling Degree Days 0 1  
Month to date cooling degree days 32 9  
Year to date cooling degree days 2698 2810  
Moisture  
Dew Point 46 °F    
Average Humidity 92    
Maximum Humidity 100    
Minimum Humidity 83    
Precipitation  
Precipitation 0.02 in 0.17 in 3.97 in (1953)
Month to date precipitation 2.36 1.51  
Year to date precipitation 67.50 56.56  
Snow  
Snow 0.00 in - - ()
Month to date snowfall 0.0  
Since 1 July snowfall 0.0  
Snow Depth 0.00 in    
Sea Level Pressure  
Sea Level Pressure 30.11 in    
Wind  
Wind Speed 4 mph (North)    
Max Wind Speed 14 mph    
Max Gust Speed 20 mph    
Visibility 8 miles    
Events Rain    
T = Trace of Precipitation, MM = Missing Value Source: NWS Daily Summary

Daily Weather History Graph

Daily Weather History Graph

Search for Another Location

Airport:

Trip Planner

Search our weather history database for the weather conditions in past years. The results will help you decide how hot, cold, wet, or windy it might be!

Date:

Astronomy

Dec. 09, 2013 Rise Set
Actual Time 6:50 AM CST 5:03 PM CST
Civil Twilight 6:23 AM CST 5:30 PM CST
Nautical Twilight 5:53 AM CST 6:00 PM CST
Astronomical Twilight 5:24 AM CST 6:29 PM CST
Moon 12:07 PM CST (12/9) No Moon Set
Length of Visible Light 11h 06m
Length of Day
10h 13m
Waxing Crescent, 51% of the Moon is Illuminated
Dec 9
Waxing Crescent
Dec 17
Full
Dec 25
Last Quarter
Jan 1
New
Jan 7
First Quarter

Hourly Weather History & Observations

Time (CST) Temp. Windchill Dew Point Humidity Pressure Visibility Wind Dir Wind Speed Gust Speed Precip Events Conditions
12:53 AM 45.0 °F 43.5 °F 44.1 °F 97% 30.09 in 10.0 mi North 3.5 mph - 0.00 in   Overcast
1:28 AM 44.6 °F - 44.6 °F 100% 30.09 in 10.0 mi Calm Calm - N/A   Overcast
1:53 AM 45.0 °F 43.5 °F 45.0 °F 100% 30.10 in 10.0 mi NE 3.5 mph - N/A   Overcast
2:53 AM 46.0 °F - 45.0 °F 96% 30.10 in 10.0 mi Calm Calm - N/A   Overcast
3:53 AM 46.0 °F - 45.0 °F 96% 30.10 in 10.0 mi Calm Calm - N/A   Overcast
4:20 AM 46.4 °F - 44.6 °F 93% 30.10 in 10.0 mi Calm Calm - N/A   Overcast
4:53 AM 46.0 °F - 45.0 °F 96% 30.10 in 10.0 mi Calm Calm - N/A   Overcast
5:53 AM 46.0 °F 44.8 °F 45.0 °F 96% 30.11 in 10.0 mi NNW 3.5 mph - N/A   Overcast
6:53 AM 46.9 °F - 45.0 °F 93% 30.12 in 10.0 mi Calm Calm - N/A   Overcast
7:53 AM 46.9 °F - 45.0 °F 93% 30.14 in 10.0 mi Variable 3.5 mph - N/A   Overcast
8:53 AM 48.0 °F - 45.0 °F 89% 30.14 in 10.0 mi NE 8.1 mph - N/A   Overcast
9:53 AM 48.9 °F - 46.9 °F 93% 30.15 in 10.0 mi NNE 6.9 mph - N/A   Overcast
10:53 AM 51.1 °F - 46.9 °F 86% 30.16 in 10.0 mi NNE 3.5 mph - N/A   Overcast
11:53 AM 51.1 °F - 48.0 °F 89% 30.14 in 10.0 mi NW 5.8 mph - 0.00 in   Overcast
12:53 PM 51.1 °F - 48.0 °F 89% 30.10 in 10.0 mi North 3.5 mph - 0.00 in   Overcast
1:53 PM 51.1 °F - 48.0 °F 89% 30.07 in 6.0 mi North 5.8 mph - 0.01 in   Overcast
2:36 PM 50.0 °F - 46.4 °F 87% 30.09 in 2.0 mi Calm Calm - 0.00 in Rain Light Rain
2:53 PM 50.0 °F - 48.0 °F 93% 30.08 in 4.0 mi Variable 3.5 mph - 0.01 in Rain Light Rain
3:53 PM 48.9 °F - 46.9 °F 93% 30.07 in 7.0 mi North 5.8 mph - 0.00 in   Overcast
4:53 PM 48.9 °F - 46.9 °F 93% 30.08 in 10.0 mi NNE 3.5 mph - N/A   Overcast
5:53 PM 48.9 °F - 46.9 °F 93% 30.09 in 4.0 mi NE 3.5 mph - N/A   Overcast
6:53 PM 48.9 °F - 46.9 °F 93% 30.08 in 5.0 mi East 9.2 mph - N/A   Overcast
7:49 PM 48.2 °F - 46.4 °F 93% 30.08 in 5.0 mi NNE 3.5 mph - N/A   Overcast
7:53 PM 48.9 °F - 48.0 °F 97% 30.09 in 5.0 mi Variable 3.5 mph - N/A   Overcast
8:44 PM 48.2 °F - 48.2 °F 100% 30.09 in 2.5 mi NNE 3.5 mph - 0.00 in Rain Light Rain
8:53 PM 48.9 °F - 48.0 °F 97% 30.10 in 2.0 mi NNW 3.5 mph - 0.00 in Rain Light Rain
9:53 PM 46.9 °F - 46.0 °F 97% 30.12 in 3.0 mi NNW 8.1 mph - 0.00 in   Overcast
10:53 PM 44.1 °F 39.0 °F 42.1 °F 93% 30.14 in 4.0 mi NW 9.2 mph - 0.00 in   Overcast
11:53 PM 39.9 °F 33.9 °F 39.0 °F 97% 30.17 in 7.0 mi NNW 9.2 mph 18.4 mph 0.00 in Rain Light Rain